GLO2141 SBFI-SBFZ

Flight info

Callsign GLO2141
Flight time 3h 47m
Altitude 37000
Route UPORU DCT UMPED UM532 KUKOL DCT EPDEP UZ60 DOTKU
Aircraft B738/M-SDFGIKLORWX/LB1

Departure

Time 2026-04-23 22:30
Airport Cataratas International Airport (SBFI)

Arrival

Time 2026-04-24 02:18
Airport Pinto Martins International Airport (SBFZ)
Time Latitude Longitude Altitude Speed Heading
2026-04-23 21:57 -25.59728 -54.48803 797 ft 0 kts 221°
2026-04-23 22:23 -25.59718 -54.48794 797 ft 4 kts 229°
2026-04-23 22:24 -25.59705 -54.48769 797 ft 4 kts 261°
2026-04-23 22:24 -25.59708 -54.48743 797 ft 3 kts 307°
2026-04-23 22:24 -25.59714 -54.48736 797 ft 0 kts 311°
2026-04-23 22:26 -25.59707 -54.48745 797 ft 4 kts 311°
2026-04-23 22:26 -25.59679 -54.48780 797 ft 9 kts 311°
2026-04-23 22:26 -25.59629 -54.48845 797 ft 13 kts 311°
2026-04-23 22:27 -25.59554 -54.48925 798 ft 16 kts 344°
2026-04-23 22:27 -25.59442 -54.48922 800 ft 18 kts 329°
2026-04-23 22:27 -25.59345 -54.49032 798 ft 22 kts 313°
2026-04-23 22:27 -25.59236 -54.49166 798 ft 25 kts 310°
2026-04-23 22:28 -25.59120 -54.49322 795 ft 26 kts 309°
2026-04-23 22:28 -25.59005 -54.49472 796 ft 25 kts 310°
2026-04-23 22:28 -25.58896 -54.49612 796 ft 23 kts 311°
2026-04-23 22:28 -25.58793 -54.49741 799 ft 22 kts 311°
2026-04-23 22:29 -25.58688 -54.49864 800 ft 22 kts 332°
2026-04-23 22:29 -25.58596 -54.49943 801 ft 13 kts 247°
2026-04-23 22:29 -25.58657 -54.49919 801 ft 11 kts 127°
2026-04-23 22:29 -25.58738 -54.49814 799 ft 42 kts 131°
2026-04-23 22:30 -25.59090 -54.49361 795 ft 111 kts 131°
2026-04-23 22:30 -25.59720 -54.48543 801 ft 167 kts 128°
2026-04-23 22:30 -25.60526 -54.47475 1233 ft 184 kts 129°
2026-04-23 22:30 -25.61348 -54.46424 2144 ft 177 kts 131°
2026-04-23 22:31 -25.62181 -54.45371 2745 ft 191 kts 130°
2026-04-23 22:31 -25.63120 -54.44172 3021 ft 217 kts 130°
2026-04-23 22:31 -25.64129 -54.42878 3506 ft 225 kts 130°
2026-04-23 22:31 -25.65159 -54.41553 4121 ft 228 kts 130°
2026-04-23 22:32 -25.66126 -54.40141 4644 ft 238 kts 114°
2026-04-23 22:32 -25.66375 -54.38306 5002 ft 249 kts 78°
2026-04-23 22:32 -25.65647 -54.36575 5534 ft 253 kts 52°
2026-04-23 22:32 -25.64438 -54.35054 5938 ft 271 kts 45°
2026-04-23 22:33 -25.63090 -54.33563 6632 ft 277 kts 44°
2026-04-23 22:33 -25.61706 -54.32063 7361 ft 280 kts 44°
2026-04-23 22:33 -25.60318 -54.30552 8097 ft 283 kts 44°
2026-04-23 22:33 -25.58910 -54.29008 8834 ft 287 kts 44°
2026-04-23 22:34 -25.57489 -54.27437 9562 ft 291 kts 45°
2026-04-23 22:34 -25.56125 -54.25921 10236 ft 295 kts 45°
2026-04-23 22:34 -25.54632 -54.24258 10494 ft 316 kts 45°
2026-04-23 22:34 -25.53031 -54.22470 10659 ft 338 kts 45°
2026-04-23 22:35 -25.51335 -54.20571 10977 ft 352 kts 45°
2026-04-23 22:35 -25.49590 -54.18615 11521 ft 358 kts 45°
2026-04-23 22:35 -25.47835 -54.16647 12173 ft 361 kts 45°
2026-04-23 22:35 -25.46063 -54.14661 12822 ft 364 kts 45°
2026-04-23 22:36 -25.44279 -54.12660 13434 ft 368 kts 44°
2026-04-23 22:36 -25.42472 -54.10635 14009 ft 371 kts 44°
2026-04-23 22:36 -25.40672 -54.08620 14541 ft 375 kts 44°
2026-04-23 22:36 -25.38829 -54.06556 15066 ft 379 kts 44°
2026-04-23 22:37 -25.36967 -54.04473 15579 ft 382 kts 44°
2026-04-23 22:37 -25.35091 -54.02374 16099 ft 386 kts 44°
2026-04-23 22:37 -25.33187 -54.00246 16606 ft 390 kts 44°
2026-04-23 22:37 -25.31272 -53.98105 17134 ft 393 kts 44°
2026-04-23 22:38 -25.29337 -53.95944 17637 ft 397 kts 44°
2026-04-23 22:38 -25.27388 -53.93768 18122 ft 400 kts 44°
2026-04-23 22:38 -25.25421 -53.91572 18568 ft 404 kts 44°
2026-04-23 22:38 -25.23437 -53.89360 18963 ft 408 kts 44°
2026-04-23 22:39 -25.21353 -53.87216 19359 ft 410 kts 37°
2026-04-23 22:39 -25.19082 -53.85356 19761 ft 412 kts 33°
2026-04-23 22:39 -25.16708 -53.83560 20161 ft 415 kts 32°
2026-04-23 22:39 -25.14296 -53.81779 20551 ft 419 kts 31°
2026-04-23 22:40 -25.11855 -53.79976 20949 ft 422 kts 31°
2026-04-23 22:40 -25.09413 -53.78154 21338 ft 426 kts 32°
2026-04-23 22:40 -25.04493 -53.74431 22075 ft 432 kts 32°
2026-04-23 22:41 -25.02012 -53.72536 22446 ft 435 kts 32°
2026-04-23 22:41 -24.99516 -53.70624 22805 ft 439 kts 32°
2026-04-23 22:41 -24.96998 -53.68694 23156 ft 442 kts 32°
2026-04-23 22:41 -24.94468 -53.66754 23490 ft 445 kts 32°
2026-04-23 22:42 -24.91916 -53.64797 23783 ft 448 kts 32°
2026-04-23 22:42 -24.89354 -53.62834 24079 ft 450 kts 32°
2026-04-23 22:42 -24.86783 -53.60866 24392 ft 451 kts 32°
2026-04-23 22:42 -24.84205 -53.58893 24691 ft 452 kts 32°
2026-04-23 22:43 -24.81612 -53.56910 24977 ft 454 kts 32°
2026-04-23 22:43 -24.79047 -53.54951 25250 ft 456 kts 31°
2026-04-23 22:43 -24.76436 -53.52957 25521 ft 458 kts 31°
2026-04-23 22:43 -24.73816 -53.50957 25798 ft 460 kts 31°
2026-04-23 22:44 -24.71179 -53.48946 26057 ft 461 kts 31°
2026-04-23 22:44 -24.68533 -53.46928 26330 ft 463 kts 31°
2026-04-23 22:44 -24.65883 -53.44909 26597 ft 464 kts 31°
2026-04-23 22:44 -24.63217 -53.42879 26848 ft 466 kts 31°
2026-04-23 22:45 -24.60546 -53.40845 27110 ft 468 kts 31°
2026-04-23 22:45 -24.57868 -53.38808 27382 ft 469 kts 31°
2026-04-23 22:45 -24.55174 -53.36759 27629 ft 471 kts 31°
2026-04-23 22:45 -24.52470 -53.34704 27872 ft 473 kts 31°
2026-04-23 22:46 -24.49798 -53.32674 28115 ft 474 kts 31°
2026-04-23 22:46 -24.47081 -53.30611 28353 ft 476 kts 31°
2026-04-23 22:46 -24.44357 -53.28544 28613 ft 477 kts 31°
2026-04-23 22:46 -24.41618 -53.26467 28836 ft 479 kts 31°
2026-04-23 22:47 -24.38875 -53.24387 29047 ft 480 kts 31°
2026-04-23 22:47 -24.36122 -53.22302 29282 ft 482 kts 31°
2026-04-23 22:47 -24.33362 -53.20212 29496 ft 483 kts 31°
2026-04-23 22:47 -24.30586 -53.18112 29688 ft 485 kts 31°
2026-04-23 22:48 -24.27810 -53.16012 29920 ft 486 kts 31°
2026-04-23 22:48 -24.25023 -53.13904 30159 ft 486 kts 31°
2026-04-23 22:48 -24.22240 -53.11801 30433 ft 484 kts 31°
2026-04-23 22:48 -24.19470 -53.09708 30703 ft 483 kts 31°
2026-04-23 22:49 -24.16704 -53.07619 30954 ft 483 kts 31°
2026-04-23 22:49 -24.14866 -53.06233 31100 ft 483 kts 31°
2026-04-23 22:49 -24.12104 -53.04150 31337 ft 483 kts 31°
2026-04-23 22:49 -24.09332 -53.02062 31619 ft 482 kts 31°
2026-04-23 22:50 -24.05671 -52.99304 31971 ft 481 kts 31°
2026-04-23 22:50 -24.03808 -52.97901 32132 ft 481 kts 31°
2026-04-23 22:50 -24.01050 -52.95826 32373 ft 481 kts 31°
2026-04-23 22:50 -23.98286 -52.93748 32640 ft 481 kts 31°
2026-04-23 22:51 -23.95533 -52.91678 32912 ft 480 kts 31°
2026-04-23 22:51 -23.92814 -52.89635 33160 ft 480 kts 31°
2026-04-23 22:51 -23.90027 -52.87543 33404 ft 480 kts 31°
2026-04-23 22:51 -23.87276 -52.85479 33664 ft 479 kts 31°
2026-04-23 22:52 -23.84531 -52.83420 33916 ft 479 kts 31°
2026-04-23 22:52 -23.81787 -52.81363 34151 ft 478 kts 31°
2026-04-23 22:52 -23.79077 -52.79331 34370 ft 478 kts 31°
2026-04-23 22:52 -23.76338 -52.77280 34587 ft 477 kts 31°
2026-04-23 22:53 -23.73602 -52.75232 34806 ft 476 kts 31°
2026-04-23 22:53 -23.70865 -52.73184 35022 ft 476 kts 31°
2026-04-23 22:53 -23.68134 -52.71142 35197 ft 476 kts 31°
2026-04-23 22:53 -23.65400 -52.69100 35380 ft 476 kts 31°
2026-04-23 22:54 -23.62669 -52.67060 35598 ft 476 kts 31°
2026-04-23 22:54 -23.59936 -52.65019 35805 ft 475 kts 31°
2026-04-23 22:54 -23.57204 -52.62980 35978 ft 475 kts 31°
2026-04-23 22:54 -23.54477 -52.60947 36169 ft 475 kts 31°
2026-04-23 22:55 -23.51754 -52.58917 36366 ft 474 kts 31°
2026-04-23 22:55 -23.49034 -52.56890 36561 ft 474 kts 31°
2026-04-23 22:55 -23.46315 -52.54865 36728 ft 474 kts 31°
2026-04-23 22:55 -23.43588 -52.52836 36891 ft 474 kts 31°
2026-04-23 22:56 -23.40861 -52.50807 37007 ft 475 kts 31°
2026-04-23 22:56 -23.35390 -52.46742 37021 ft 476 kts 31°
2026-04-23 22:57 -23.29932 -52.42687 37010 ft 473 kts 31°
2026-04-23 22:57 -23.24542 -52.38688 37023 ft 470 kts 31°
2026-04-23 22:58 -23.19140 -52.34684 37017 ft 469 kts 31°
2026-04-23 22:58 -23.13756 -52.30699 37030 ft 468 kts 31°
2026-04-23 22:59 -23.08365 -52.26711 37024 ft 469 kts 31°
2026-04-23 22:59 -23.02970 -52.22725 37031 ft 470 kts 31°
2026-04-23 23:00 -22.97548 -52.18723 37027 ft 472 kts 31°
2026-04-23 23:00 -22.92138 -52.14734 37030 ft 474 kts 31°
2026-04-23 23:01 -22.86675 -52.10709 37024 ft 476 kts 31°
2026-04-23 23:01 -22.81186 -52.06669 37022 ft 477 kts 31°
2026-04-23 23:02 -22.75686 -52.02625 37023 ft 478 kts 31°
2026-04-23 23:02 -22.70170 -51.98573 37022 ft 479 kts 32°
2026-04-23 23:03 -22.64687 -51.94549 37025 ft 479 kts 32°
2026-04-23 23:03 -22.59175 -51.90508 37013 ft 478 kts 32°
2026-04-23 23:04 -22.53674 -51.86479 37019 ft 477 kts 32°
2026-04-23 23:04 -22.48177 -51.82457 37019 ft 476 kts 32°
2026-04-23 23:05 -22.42691 -51.78447 37019 ft 475 kts 32°
2026-04-23 23:05 -22.37216 -51.74449 37017 ft 474 kts 32°
2026-04-23 23:06 -22.31749 -51.70460 37028 ft 473 kts 32°
2026-04-23 23:06 -22.26294 -51.66485 37031 ft 473 kts 32°
2026-04-23 23:07 -22.20872 -51.62537 37037 ft 473 kts 32°
2026-04-23 23:07 -22.15414 -51.58566 37041 ft 473 kts 32°
2026-04-23 23:08 -22.09954 -51.54599 37044 ft 474 kts 32°
2026-04-23 23:08 -22.04479 -51.50623 37042 ft 475 kts 32°
2026-04-23 23:09 -21.98998 -51.46648 37039 ft 475 kts 32°
2026-04-23 23:09 -21.93530 -51.42685 37032 ft 476 kts 32°
2026-04-23 23:10 -21.88027 -51.38701 37021 ft 477 kts 32°
2026-04-23 23:10 -21.82513 -51.34712 37015 ft 477 kts 32°
2026-04-23 23:11 -21.76993 -51.30723 37013 ft 478 kts 32°
2026-04-23 23:11 -21.71461 -51.26729 37006 ft 478 kts 32°
2026-04-23 23:12 -21.65942 -51.22749 37009 ft 478 kts 32°
2026-04-23 23:12 -21.60422 -51.18770 37004 ft 477 kts 32°
2026-04-23 23:13 -21.54954 -51.14833 37009 ft 476 kts 32°
2026-04-23 23:13 -21.49460 -51.10882 37003 ft 475 kts 32°
2026-04-23 23:14 -21.43977 -51.06941 37009 ft 473 kts 32°
2026-04-23 23:14 -21.38510 -51.03016 37005 ft 472 kts 32°
2026-04-23 23:15 -21.33046 -50.99096 37008 ft 471 kts 32°
2026-04-23 23:15 -21.27593 -50.95188 37005 ft 471 kts 32°
2026-04-23 23:16 -21.22155 -50.91294 37004 ft 470 kts 32°
2026-04-23 23:16 -21.16758 -50.87432 37005 ft 470 kts 32°
2026-04-23 23:17 -21.11300 -50.83585 37003 ft 468 kts 28°
2026-04-23 23:17 -21.05573 -50.80266 37003 ft 467 kts 25°
2026-04-23 23:18 -20.99783 -50.77083 37000 ft 468 kts 26°
2026-04-23 23:18 -20.94007 -50.73849 37000 ft 468 kts 26°
2026-04-23 23:19 -20.88246 -50.70586 36999 ft 469 kts 26°
2026-04-23 23:19 -20.82507 -50.67336 36997 ft 469 kts 26°
2026-04-23 23:20 -20.76729 -50.64076 36998 ft 469 kts 26°
2026-04-23 23:20 -20.70918 -50.60883 36999 ft 469 kts 25°
2026-04-23 23:21 -20.65102 -50.57713 36998 ft 469 kts 25°
2026-04-23 23:21 -20.59283 -50.54535 37004 ft 469 kts 26°
2026-04-23 23:22 -20.53475 -50.51358 36997 ft 469 kts 26°
2026-04-23 23:22 -20.47670 -50.48183 36996 ft 469 kts 26°
2026-04-23 23:23 -20.41896 -50.45028 37003 ft 468 kts 26°
2026-04-23 23:23 -20.36096 -50.41862 36998 ft 468 kts 26°
2026-04-23 23:24 -20.30307 -50.38705 36997 ft 467 kts 26°
2026-04-23 23:24 -20.24517 -50.35550 36998 ft 467 kts 26°
2026-04-23 23:25 -20.18741 -50.32404 36994 ft 466 kts 26°
2026-04-23 23:25 -20.12994 -50.29277 36996 ft 466 kts 26°
2026-04-23 23:26 -20.07224 -50.26130 37001 ft 465 kts 26°
2026-04-23 23:26 -20.01471 -50.22979 36996 ft 465 kts 26°
2026-04-23 23:27 -19.95709 -50.19845 36995 ft 465 kts 26°
2026-04-23 23:27 -19.89945 -50.16746 36997 ft 464 kts 26°
2026-04-23 23:28 -19.84174 -50.13646 36994 ft 464 kts 26°
2026-04-23 23:28 -19.78407 -50.10545 36993 ft 464 kts 26°
2026-04-23 23:29 -19.72679 -50.07465 36997 ft 464 kts 26°
2026-04-23 23:29 -19.66917 -50.04370 36989 ft 464 kts 26°
2026-04-23 23:30 -19.61160 -50.01280 36984 ft 463 kts 26°
2026-04-23 23:30 -19.55420 -49.98202 36989 ft 461 kts 26°
2026-04-23 23:31 -19.49706 -49.95140 36993 ft 459 kts 26°
2026-04-23 23:31 -19.44012 -49.92091 36999 ft 458 kts 26°
2026-04-23 23:32 -19.38323 -49.89046 37001 ft 457 kts 26°
2026-04-23 23:32 -19.32659 -49.86007 37001 ft 455 kts 27°
2026-04-23 23:33 -19.27039 -49.82907 37004 ft 455 kts 27°
2026-04-23 23:33 -19.21439 -49.79798 37001 ft 455 kts 27°
2026-04-23 23:34 -19.15866 -49.76717 37003 ft 455 kts 27°
2026-04-23 23:34 -19.10256 -49.73623 37003 ft 455 kts 27°
2026-04-23 23:35 -19.04630 -49.70525 37004 ft 456 kts 27°
2026-04-23 23:35 -18.98995 -49.67423 37005 ft 457 kts 27°
2026-04-23 23:36 -18.93355 -49.64321 37005 ft 458 kts 27°
2026-04-23 23:36 -18.87698 -49.61211 37005 ft 458 kts 27°
2026-04-23 23:37 -18.82038 -49.58103 37000 ft 459 kts 27°
2026-04-23 23:37 -18.76364 -49.55012 37001 ft 459 kts 27°
2026-04-23 23:38 -18.70677 -49.51927 37007 ft 459 kts 27°
2026-04-23 23:38 -18.65959 -49.49367 37006 ft 459 kts 27°
2026-04-23 23:39 -18.60289 -49.46290 37005 ft 458 kts 27°
2026-04-23 23:39 -18.53707 -49.42719 37005 ft 457 kts 27°
2026-04-23 23:40 -18.48976 -49.40154 37008 ft 456 kts 27°
2026-04-23 23:40 -18.43335 -49.37099 37005 ft 455 kts 27°
2026-04-23 23:41 -18.37708 -49.34053 37015 ft 454 kts 27°
2026-04-23 23:41 -18.32102 -49.31021 37013 ft 453 kts 27°
2026-04-23 23:42 -18.26538 -49.28013 37018 ft 452 kts 27°
2026-04-23 23:42 -18.20943 -49.24991 37021 ft 451 kts 27°
2026-04-23 23:43 -18.15372 -49.21983 37024 ft 450 kts 27°
2026-04-23 23:43 -18.09801 -49.18979 37026 ft 449 kts 27°
2026-04-23 23:44 -18.04225 -49.16003 37024 ft 449 kts 27°
2026-04-23 23:44 -17.98655 -49.13041 37028 ft 449 kts 27°
2026-04-23 23:45 -17.93120 -49.10095 37032 ft 449 kts 27°
2026-04-23 23:45 -17.87514 -49.07112 37032 ft 449 kts 27°
2026-04-23 23:46 -17.81972 -49.04163 37035 ft 449 kts 27°
2026-04-23 23:46 -17.76394 -49.01198 37033 ft 450 kts 27°
2026-04-23 23:47 -17.70812 -48.98224 37038 ft 450 kts 28°
2026-04-23 23:47 -17.65236 -48.95211 37038 ft 451 kts 28°
2026-04-23 23:48 -17.59657 -48.92190 37036 ft 451 kts 28°
2026-04-23 23:48 -17.54080 -48.89177 37037 ft 451 kts 28°
2026-04-23 23:49 -17.45711 -48.84664 37039 ft 451 kts 28°
2026-04-23 23:49 -17.40119 -48.81651 37037 ft 451 kts 28°
2026-04-23 23:50 -17.34581 -48.78669 37042 ft 450 kts 28°
2026-04-23 23:50 -17.29009 -48.75671 37038 ft 450 kts 28°
2026-04-23 23:51 -17.23434 -48.72672 37044 ft 450 kts 28°
2026-04-23 23:51 -17.17832 -48.69724 37047 ft 450 kts 27°
2026-04-23 23:52 -17.12213 -48.66865 37047 ft 449 kts 27°
2026-04-23 23:52 -17.06582 -48.64000 37050 ft 449 kts 27°
2026-04-23 23:53 -17.00966 -48.61130 37052 ft 449 kts 27°
2026-04-23 23:53 -16.95396 -48.58281 37057 ft 449 kts 27°
2026-04-23 23:54 -16.89784 -48.55411 37054 ft 448 kts 27°
2026-04-23 23:54 -16.84182 -48.52549 37059 ft 448 kts 27°
2026-04-23 23:55 -16.78575 -48.49686 37056 ft 448 kts 27°
2026-04-23 23:55 -16.72973 -48.46827 37062 ft 448 kts 27°
2026-04-23 23:56 -16.67485 -48.43763 37058 ft 447 kts 36°
2026-04-23 23:56 -16.62465 -48.39942 37066 ft 446 kts 38°
2026-04-23 23:57 -16.57491 -48.36068 37064 ft 446 kts 37°
2026-04-23 23:57 -16.52527 -48.32240 37065 ft 447 kts 37°
2026-04-23 23:58 -16.47485 -48.28387 37064 ft 447 kts 37°
2026-04-23 23:58 -16.42500 -48.24589 37072 ft 447 kts 37°
2026-04-23 23:59 -16.37477 -48.20768 37067 ft 447 kts 37°
2026-04-23 23:59 -16.32460 -48.16951 37068 ft 447 kts 37°
2026-04-24 00:00 -16.27438 -48.13134 37072 ft 446 kts 37°
2026-04-24 00:00 -16.22423 -48.09324 37074 ft 446 kts 37°
2026-04-24 00:01 -16.17405 -48.05513 37088 ft 446 kts 37°
2026-04-24 00:01 -16.12423 -48.01733 37100 ft 446 kts 37°
2026-04-24 00:02 -16.07385 -47.97913 37122 ft 445 kts 37°
2026-04-24 00:02 -16.02384 -47.94122 37143 ft 445 kts 37°
2026-04-24 00:03 -15.97420 -47.90363 37156 ft 444 kts 37°
2026-04-24 00:03 -15.92435 -47.86589 37155 ft 443 kts 37°
2026-04-24 00:04 -15.87440 -47.82811 37160 ft 443 kts 37°
2026-04-24 00:04 -15.82461 -47.79048 37147 ft 442 kts 37°
2026-04-24 00:05 -15.77480 -47.75285 37131 ft 442 kts 37°
2026-04-24 00:05 -15.72506 -47.71529 37120 ft 442 kts 38°
2026-04-24 00:06 -15.67562 -47.67799 37100 ft 442 kts 38°
2026-04-24 00:06 -15.62596 -47.64054 37083 ft 441 kts 38°
2026-04-24 00:07 -15.57627 -47.60309 37085 ft 441 kts 38°
2026-04-24 00:07 -15.52662 -47.56570 37081 ft 440 kts 38°
2026-04-24 00:08 -15.47706 -47.52840 37073 ft 440 kts 38°
2026-04-24 00:08 -15.42746 -47.49108 37082 ft 440 kts 38°
2026-04-24 00:09 -15.37786 -47.45379 37063 ft 440 kts 38°
2026-04-24 00:09 -15.32831 -47.41656 37064 ft 440 kts 38°
2026-04-24 00:10 -15.27875 -47.37935 37062 ft 440 kts 38°
2026-04-24 00:10 -15.22948 -47.34237 37056 ft 440 kts 38°
2026-04-24 00:11 -15.17993 -47.30521 37053 ft 440 kts 38°
2026-04-24 00:11 -15.13032 -47.26802 37052 ft 440 kts 38°
2026-04-24 00:12 -15.08079 -47.23092 37041 ft 440 kts 38°
2026-04-24 00:12 -15.03126 -47.19384 37041 ft 439 kts 38°
2026-04-24 00:13 -14.98170 -47.15675 37029 ft 439 kts 38°
2026-04-24 00:13 -14.93217 -47.11971 37028 ft 439 kts 38°
2026-04-24 00:14 -14.88267 -47.08270 37027 ft 439 kts 38°
2026-04-24 00:14 -14.83325 -47.04578 37021 ft 438 kts 38°
2026-04-24 00:15 -14.78414 -47.00911 37020 ft 438 kts 38°
2026-04-24 00:15 -14.73560 -46.97113 37017 ft 437 kts 40°
2026-04-24 00:16 -14.68780 -46.93231 37013 ft 437 kts 40°
2026-04-24 00:16 -14.63984 -46.89362 37011 ft 436 kts 40°
2026-04-24 00:17 -14.59190 -46.85519 37011 ft 436 kts 40°
2026-04-24 00:17 -14.54423 -46.81702 37011 ft 436 kts 40°
2026-04-24 00:18 -14.49631 -46.77865 37010 ft 436 kts 40°
2026-04-24 00:18 -14.44838 -46.74023 37013 ft 436 kts 40°
2026-04-24 00:19 -14.40051 -46.70187 37010 ft 436 kts 40°
2026-04-24 00:19 -14.35263 -46.66353 37015 ft 436 kts 40°
2026-04-24 00:20 -14.30468 -46.62515 37015 ft 436 kts 40°
2026-04-24 00:20 -14.25675 -46.58680 37016 ft 436 kts 40°
2026-04-24 00:21 -14.20886 -46.54851 37018 ft 436 kts 40°
2026-04-24 00:21 -14.16120 -46.51054 37023 ft 436 kts 40°
2026-04-24 00:22 -14.11315 -46.47232 37023 ft 436 kts 40°
2026-04-24 00:22 -14.06518 -46.43417 37032 ft 436 kts 40°
2026-04-24 00:23 -14.01723 -46.39604 37031 ft 435 kts 40°
2026-04-24 00:23 -13.96925 -46.35790 37034 ft 435 kts 40°
2026-04-24 00:24 -13.92135 -46.31984 37030 ft 435 kts 40°
2026-04-24 00:24 -13.87346 -46.28182 37037 ft 435 kts 40°
2026-04-24 00:25 -13.82554 -46.24378 37040 ft 434 kts 40°
2026-04-24 00:25 -13.77768 -46.20582 37042 ft 434 kts 40°
2026-04-24 00:26 -13.72979 -46.16785 37044 ft 434 kts 40°
2026-04-24 00:26 -13.68227 -46.13020 37048 ft 434 kts 40°
2026-04-24 00:27 -13.63442 -46.09230 37045 ft 434 kts 40°
2026-04-24 00:27 -13.58644 -46.05432 37046 ft 434 kts 40°
2026-04-24 00:28 -13.53856 -46.01644 37048 ft 434 kts 40°
2026-04-24 00:28 -13.49871 -45.98492 37055 ft 435 kts 40°
2026-04-24 00:29 -13.45080 -45.94705 37053 ft 435 kts 40°
2026-04-24 00:29 -13.39498 -45.90296 37048 ft 435 kts 40°
2026-04-24 00:30 -13.35482 -45.87125 37051 ft 435 kts 40°
2026-04-24 00:30 -13.30712 -45.83360 37050 ft 435 kts 40°
2026-04-24 00:31 -13.25908 -45.79570 37046 ft 435 kts 40°
2026-04-24 00:31 -13.21108 -45.75785 37046 ft 435 kts 40°
2026-04-24 00:32 -13.16308 -45.72002 37047 ft 435 kts 40°
2026-04-24 00:32 -13.11507 -45.68220 37043 ft 435 kts 40°
2026-04-24 00:33 -13.06702 -45.64435 37043 ft 435 kts 40°
2026-04-24 00:33 -13.01898 -45.60652 37043 ft 435 kts 40°
2026-04-24 00:34 -12.97103 -45.56876 37038 ft 435 kts 40°
2026-04-24 00:34 -12.92304 -45.53098 37040 ft 434 kts 40°
2026-04-24 00:35 -12.87509 -45.49325 37039 ft 435 kts 40°
2026-04-24 00:35 -12.82713 -45.45553 37035 ft 434 kts 40°
2026-04-24 00:36 -12.77916 -45.41782 37035 ft 434 kts 40°
2026-04-24 00:36 -12.73154 -45.38040 37032 ft 434 kts 40°
2026-04-24 00:37 -12.68360 -45.34275 37031 ft 433 kts 40°
2026-04-24 00:37 -12.63578 -45.30521 37028 ft 433 kts 40°
2026-04-24 00:38 -12.58798 -45.26769 37030 ft 433 kts 40°
2026-04-24 00:38 -12.54013 -45.23019 37026 ft 433 kts 40°
2026-04-24 00:39 -12.49232 -45.19277 37026 ft 433 kts 40°
2026-04-24 00:39 -12.44452 -45.15537 37027 ft 433 kts 40°
2026-04-24 00:40 -12.39670 -45.11795 37026 ft 433 kts 40°
2026-04-24 00:40 -12.34889 -45.08056 37023 ft 433 kts 40°
2026-04-24 00:41 -12.30106 -45.04316 37024 ft 433 kts 40°
2026-04-24 00:41 -12.25313 -45.00571 37011 ft 433 kts 40°
2026-04-24 00:42 -12.20519 -44.96827 37020 ft 433 kts 40°
2026-04-24 00:42 -12.15729 -44.93087 37016 ft 433 kts 40°
2026-04-24 00:43 -12.10939 -44.89349 37011 ft 433 kts 40°
2026-04-24 00:43 -12.06142 -44.85608 37009 ft 433 kts 40°
2026-04-24 00:44 -12.01344 -44.81867 37003 ft 434 kts 40°
2026-04-24 00:44 -11.96582 -44.78157 37005 ft 434 kts 40°
2026-04-24 00:45 -11.91781 -44.74417 37003 ft 434 kts 39°
2026-04-24 00:45 -11.86978 -44.70678 37001 ft 434 kts 39°
2026-04-24 00:46 -11.82172 -44.66937 36997 ft 434 kts 39°
2026-04-24 00:46 -11.77368 -44.63201 36991 ft 434 kts 39°
2026-04-24 00:47 -11.72561 -44.59463 36989 ft 435 kts 39°
2026-04-24 00:47 -11.67744 -44.55720 36989 ft 435 kts 39°
2026-04-24 00:48 -11.62922 -44.51974 36993 ft 436 kts 39°
2026-04-24 00:48 -11.58099 -44.48229 36987 ft 436 kts 39°
2026-04-24 00:49 -11.53264 -44.44477 36989 ft 437 kts 39°
2026-04-24 00:49 -11.48461 -44.40750 36987 ft 437 kts 39°
2026-04-24 00:50 -11.43608 -44.36987 36989 ft 438 kts 39°
2026-04-24 00:50 -11.38761 -44.33230 36992 ft 438 kts 39°
2026-04-24 00:51 -11.33903 -44.29466 36991 ft 438 kts 39°
2026-04-24 00:51 -11.29046 -44.25705 36996 ft 439 kts 38°
2026-04-24 00:52 -11.24180 -44.21938 36995 ft 439 kts 38°
2026-04-24 00:52 -11.19313 -44.18170 36996 ft 439 kts 38°
2026-04-24 00:53 -11.14477 -44.14430 36998 ft 439 kts 38°
2026-04-24 00:53 -11.09607 -44.10679 36998 ft 439 kts 38°
2026-04-24 00:54 -11.04731 -44.06929 37004 ft 439 kts 38°
2026-04-24 00:54 -10.99857 -44.03181 37001 ft 439 kts 38°
2026-04-24 00:55 -10.94990 -43.99438 37009 ft 438 kts 38°
2026-04-24 00:55 -10.90119 -43.95693 37007 ft 438 kts 38°
2026-04-24 00:56 -10.85285 -43.91977 37006 ft 438 kts 38°
2026-04-24 00:56 -10.80422 -43.88241 37007 ft 437 kts 38°
2026-04-24 00:57 -10.75564 -43.84510 37009 ft 437 kts 38°
2026-04-24 00:58 -10.68295 -43.78921 37008 ft 437 kts 38°
2026-04-24 00:58 -10.63455 -43.75194 37006 ft 436 kts 38°
2026-04-24 00:59 -10.58613 -43.71466 37007 ft 436 kts 38°
2026-04-24 00:59 -10.53778 -43.67744 37012 ft 436 kts 37°
2026-04-24 01:00 -10.48936 -43.64019 37007 ft 436 kts 37°
2026-04-24 01:00 -10.44090 -43.60294 37010 ft 437 kts 37°
2026-04-24 01:01 -10.39268 -43.56587 37008 ft 437 kts 37°
2026-04-24 01:01 -10.34548 -43.52960 37008 ft 437 kts 37°
2026-04-24 01:02 -10.29691 -43.49230 37008 ft 438 kts 37°
2026-04-24 01:02 -10.24825 -43.45493 37012 ft 438 kts 37°
2026-04-24 01:03 -10.19950 -43.41751 37011 ft 439 kts 37°
2026-04-24 01:03 -10.15066 -43.38007 37012 ft 440 kts 37°
2026-04-24 01:04 -10.10210 -43.34290 37011 ft 440 kts 37°
2026-04-24 01:04 -10.05317 -43.30544 37011 ft 441 kts 37°
2026-04-24 01:05 -10.00417 -43.26793 37012 ft 441 kts 37°
2026-04-24 01:05 -9.95507 -43.23036 37010 ft 442 kts 37°
2026-04-24 01:06 -9.90599 -43.19281 37010 ft 442 kts 37°
2026-04-24 01:06 -9.85688 -43.15526 37011 ft 442 kts 37°
2026-04-24 01:07 -9.80772 -43.11768 37012 ft 442 kts 37°
2026-04-24 01:07 -9.75848 -43.08006 37008 ft 442 kts 37°
2026-04-24 01:08 -9.70936 -43.04254 37012 ft 443 kts 37°
2026-04-24 01:08 -9.66045 -43.00520 37011 ft 443 kts 37°
2026-04-24 01:09 -9.61124 -42.96764 37010 ft 443 kts 37°
2026-04-24 01:09 -9.56197 -42.93004 37009 ft 443 kts 37°
2026-04-24 01:10 -9.51272 -42.89248 37008 ft 443 kts 37°
2026-04-24 01:10 -9.46338 -42.85487 37005 ft 444 kts 37°
2026-04-24 01:11 -9.41400 -42.81724 37006 ft 444 kts 37°
2026-04-24 01:11 -9.36499 -42.77990 37005 ft 444 kts 37°
2026-04-24 01:12 -9.31562 -42.74230 37005 ft 444 kts 37°
2026-04-24 01:12 -9.26619 -42.70467 37004 ft 444 kts 37°
2026-04-24 01:13 -9.21679 -42.66707 37005 ft 444 kts 37°
2026-04-24 01:13 -9.16732 -42.62944 37005 ft 444 kts 37°
2026-04-24 01:14 -9.11784 -42.59181 37005 ft 444 kts 37°
2026-04-24 01:14 -9.06834 -42.55418 37006 ft 445 kts 37°
2026-04-24 01:15 -9.02723 -42.52293 37003 ft 445 kts 37°
2026-04-24 01:15 -8.96970 -42.47921 37002 ft 445 kts 37°
2026-04-24 01:16 -8.92824 -42.44773 37003 ft 445 kts 37°
2026-04-24 01:16 -8.87875 -42.41018 37000 ft 445 kts 37°
2026-04-24 01:17 -8.82119 -42.36651 36994 ft 445 kts 37°
2026-04-24 01:17 -8.78005 -42.33531 36997 ft 445 kts 37°
2026-04-24 01:18 -8.73057 -42.29779 36994 ft 445 kts 37°
2026-04-24 01:18 -8.68111 -42.26028 36994 ft 444 kts 37°
2026-04-24 01:19 -8.63165 -42.22280 36993 ft 444 kts 37°
2026-04-24 01:19 -8.58220 -42.18533 36989 ft 444 kts 37°
2026-04-24 01:20 -8.53268 -42.14782 36987 ft 444 kts 37°
2026-04-24 01:20 -8.48322 -42.11037 36988 ft 444 kts 37°
2026-04-24 01:21 -8.43402 -42.07313 36990 ft 444 kts 37°
2026-04-24 01:21 -8.38450 -42.03566 36988 ft 444 kts 37°
2026-04-24 01:22 -8.33503 -41.99824 36987 ft 444 kts 37°
2026-04-24 01:22 -8.28555 -41.96082 36991 ft 444 kts 37°
2026-04-24 01:23 -8.23597 -41.92334 36988 ft 444 kts 37°
2026-04-24 01:23 -8.18679 -41.88618 36988 ft 444 kts 37°
2026-04-24 01:24 -8.13723 -41.84873 36984 ft 445 kts 37°
2026-04-24 01:24 -8.08769 -41.81132 36983 ft 444 kts 37°
2026-04-24 01:25 -8.03815 -41.77392 36987 ft 444 kts 37°
2026-04-24 01:25 -7.98889 -41.73674 36986 ft 444 kts 37°
2026-04-24 01:26 -7.93911 -41.69918 36988 ft 444 kts 37°
2026-04-24 01:26 -7.88982 -41.66200 36981 ft 444 kts 37°
2026-04-24 01:27 -7.84025 -41.62462 36980 ft 444 kts 38°
2026-04-24 01:27 -7.79083 -41.58737 36980 ft 444 kts 38°
2026-04-24 01:28 -7.74137 -41.55010 36983 ft 443 kts 38°
2026-04-24 01:28 -7.69189 -41.51282 36976 ft 443 kts 38°
2026-04-24 01:29 -7.64278 -41.47584 36980 ft 443 kts 38°
2026-04-24 01:29 -7.59345 -41.43869 36977 ft 443 kts 38°
2026-04-24 01:30 -7.54407 -41.40152 36976 ft 443 kts 38°
2026-04-24 01:30 -7.49467 -41.36435 36975 ft 443 kts 38°
2026-04-24 01:31 -7.44533 -41.32723 36977 ft 443 kts 38°
2026-04-24 01:31 -7.39601 -41.29014 36978 ft 443 kts 38°
2026-04-24 01:32 -7.34667 -41.25304 36979 ft 443 kts 38°
2026-04-24 01:32 -7.29726 -41.21591 36980 ft 443 kts 38°
2026-04-24 01:33 -7.24789 -41.17881 36980 ft 443 kts 38°
2026-04-24 01:33 -7.19884 -41.14196 36981 ft 443 kts 38°
2026-04-24 01:34 -7.14945 -41.10487 36983 ft 443 kts 38°
2026-04-24 01:34 -7.10005 -41.06778 36986 ft 442 kts 38°
2026-04-24 01:35 -7.05065 -41.03071 36988 ft 442 kts 38°
2026-04-24 01:35 -7.00137 -40.99372 36991 ft 442 kts 38°
2026-04-24 01:36 -6.95202 -40.95670 36990 ft 442 kts 38°
2026-04-24 01:36 -6.90271 -40.91972 36995 ft 441 kts 38°
2026-04-24 01:37 -6.85382 -40.88306 36995 ft 441 kts 38°
2026-04-24 01:37 -6.80464 -40.84619 37002 ft 441 kts 38°
2026-04-24 01:38 -6.75550 -40.80935 36998 ft 440 kts 38°
2026-04-24 01:38 -6.70633 -40.77251 37009 ft 440 kts 38°
2026-04-24 01:39 -6.65718 -40.73570 37001 ft 440 kts 38°
2026-04-24 01:39 -6.60804 -40.69891 37002 ft 440 kts 38°
2026-04-24 01:40 -6.55915 -40.66231 37005 ft 440 kts 38°
2026-04-24 01:40 -6.50996 -40.62547 37005 ft 440 kts 38°
2026-04-24 01:41 -6.46083 -40.58870 36994 ft 441 kts 38°
2026-04-24 01:41 -6.41161 -40.55187 37000 ft 441 kts 38°
2026-04-24 01:42 -6.36229 -40.51497 36994 ft 442 kts 38°
2026-04-24 01:42 -6.31297 -40.47808 36988 ft 442 kts 38°
2026-04-24 01:43 -6.26354 -40.44112 36996 ft 442 kts 38°
2026-04-24 01:43 -6.21410 -40.40415 36984 ft 443 kts 38°
2026-04-24 01:44 -6.16467 -40.36720 36989 ft 443 kts 38°
2026-04-24 01:44 -6.11518 -40.33022 36989 ft 443 kts 38°
2026-04-24 01:45 -6.06559 -40.29317 36989 ft 444 kts 38°
2026-04-24 01:45 -6.01636 -40.25639 36989 ft 444 kts 39°
2026-04-24 01:46 -5.96672 -40.21932 36988 ft 444 kts 38°
2026-04-24 01:46 -5.91711 -40.18230 36987 ft 444 kts 39°
2026-04-24 01:47 -5.86749 -40.14528 36989 ft 444 kts 39°
2026-04-24 01:47 -5.81785 -40.10823 36986 ft 444 kts 38°
2026-04-24 01:48 -5.76819 -40.07118 36989 ft 444 kts 38°
2026-04-24 01:48 -5.71857 -40.03416 36985 ft 444 kts 38°
2026-04-24 01:49 -5.66894 -39.99715 36986 ft 444 kts 38°
2026-04-24 01:49 -5.61941 -39.96020 36468 ft 449 kts 38°
2026-04-24 01:49 -5.59453 -39.94166 36090 ft 443 kts 38°
2026-04-24 01:50 -5.56988 -39.92329 35659 ft 440 kts 38°
2026-04-24 01:50 -5.54537 -39.90503 35237 ft 437 kts 38°
2026-04-24 01:50 -5.52104 -39.88690 34811 ft 434 kts 38°
2026-04-24 01:50 -5.49692 -39.86892 34390 ft 431 kts 38°
2026-04-24 01:51 -5.47291 -39.85102 33951 ft 429 kts 38°
2026-04-24 01:51 -5.44901 -39.83322 33492 ft 426 kts 38°
2026-04-24 01:51 -5.42528 -39.81554 33055 ft 423 kts 37°
2026-04-24 01:51 -5.40177 -39.79802 32617 ft 420 kts 37°
2026-04-24 01:52 -5.37838 -39.78060 32213 ft 417 kts 37°
2026-04-24 01:52 -5.35515 -39.76330 31809 ft 414 kts 37°
2026-04-24 01:52 -5.33209 -39.74613 31408 ft 411 kts 37°
2026-04-24 01:52 -5.30922 -39.72910 31004 ft 409 kts 37°
2026-04-24 01:53 -5.28646 -39.71215 30607 ft 406 kts 37°
2026-04-24 01:53 -5.26379 -39.69527 30215 ft 404 kts 37°
2026-04-24 01:53 -5.24127 -39.67851 29767 ft 403 kts 37°
2026-04-24 01:53 -5.21884 -39.66181 29314 ft 399 kts 37°
2026-04-24 01:54 -5.19664 -39.64528 28897 ft 396 kts 37°
2026-04-24 01:54 -5.17456 -39.62886 28483 ft 393 kts 37°
2026-04-24 01:54 -5.15271 -39.61259 28073 ft 390 kts 37°
2026-04-24 01:54 -5.13126 -39.59663 27676 ft 387 kts 37°
2026-04-24 01:55 -5.10972 -39.58061 27277 ft 385 kts 37°
2026-04-24 01:55 -5.08829 -39.56466 26884 ft 382 kts 37°
2026-04-24 01:55 -5.06699 -39.54882 26489 ft 380 kts 38°
2026-04-24 01:55 -5.04589 -39.53312 26103 ft 377 kts 38°
2026-04-24 01:56 -5.02483 -39.51746 25715 ft 375 kts 38°
2026-04-24 01:56 -5.00389 -39.50189 25316 ft 374 kts 38°
2026-04-24 01:56 -4.98300 -39.48635 24927 ft 373 kts 38°
2026-04-24 01:56 -4.96217 -39.47086 24526 ft 372 kts 38°
2026-04-24 01:57 -4.94142 -39.45543 24136 ft 371 kts 38°
2026-04-24 01:57 -4.92073 -39.44005 23743 ft 370 kts 38°
2026-04-24 01:57 -4.90005 -39.42467 23308 ft 369 kts 38°
2026-04-24 01:57 -4.87945 -39.40936 22888 ft 367 kts 38°
2026-04-24 01:58 -4.86586 -39.39925 22619 ft 366 kts 38°
2026-04-24 01:58 -4.83864 -39.37902 22099 ft 363 kts 38°
2026-04-24 01:58 -4.81866 -39.36418 21720 ft 360 kts 38°
2026-04-24 01:58 -4.79859 -39.34926 21351 ft 358 kts 38°
2026-04-24 01:59 -4.77861 -39.33441 20965 ft 356 kts 38°
2026-04-24 01:59 -4.75878 -39.31968 20594 ft 354 kts 38°
2026-04-24 01:59 -4.73906 -39.30502 20223 ft 352 kts 38°
2026-04-24 01:59 -4.71938 -39.29040 19852 ft 351 kts 38°
2026-04-24 02:00 -4.69976 -39.27582 19463 ft 350 kts 38°
2026-04-24 02:00 -4.68026 -39.26133 19091 ft 349 kts 38°
2026-04-24 02:00 -4.66076 -39.24684 18720 ft 348 kts 39°
2026-04-24 02:00 -4.64136 -39.23243 18338 ft 347 kts 39°
2026-04-24 02:01 -4.62192 -39.21798 17924 ft 346 kts 39°
2026-04-24 02:01 -4.60234 -39.20444 17730 ft 338 kts 35°
2026-04-24 02:01 -4.58241 -39.19210 17426 ft 334 kts 33°
2026-04-24 02:01 -4.56248 -39.18019 17078 ft 332 kts 33°
2026-04-24 02:02 -4.54267 -39.16840 16747 ft 330 kts 33°
2026-04-24 02:02 -4.52304 -39.15666 16390 ft 327 kts 33°
2026-04-24 02:02 -4.50357 -39.14494 16046 ft 325 kts 33°
2026-04-24 02:02 -4.48426 -39.13326 15705 ft 324 kts 33°
2026-04-24 02:03 -4.44590 -39.10995 15021 ft 321 kts 33°
2026-04-24 02:03 -4.43329 -39.10227 14797 ft 320 kts 33°
2026-04-24 02:03 -4.41431 -39.09069 14456 ft 318 kts 33°
2026-04-24 02:04 -4.38929 -39.07543 13998 ft 317 kts 33°
2026-04-24 02:04 -4.37049 -39.06395 13635 ft 315 kts 34°
2026-04-24 02:04 -4.35788 -39.05626 13391 ft 314 kts 33°
2026-04-24 02:04 -4.33326 -39.04123 12904 ft 312 kts 33°
2026-04-24 02:05 -4.32079 -39.03362 12677 ft 310 kts 33°
2026-04-24 02:05 -4.30265 -39.02255 12340 ft 308 kts 33°
2026-04-24 02:05 -4.28437 -39.01139 11996 ft 307 kts 33°
2026-04-24 02:05 -4.26624 -39.00033 11657 ft 305 kts 34°
2026-04-24 02:06 -4.24813 -38.98928 11338 ft 303 kts 34°
2026-04-24 02:06 -4.23021 -38.97834 11004 ft 301 kts 33°
2026-04-24 02:06 -4.21234 -38.96743 10687 ft 300 kts 33°
2026-04-24 02:06 -4.19452 -38.95655 10347 ft 299 kts 33°
2026-04-24 02:07 -4.17693 -38.94583 10178 ft 293 kts 33°
2026-04-24 02:07 -4.15970 -38.93531 10029 ft 286 kts 33°
2026-04-24 02:07 -4.14280 -38.92501 9767 ft 285 kts 33°
2026-04-24 02:07 -4.12596 -38.91473 9459 ft 283 kts 34°
2026-04-24 02:08 -4.10914 -38.90447 9158 ft 282 kts 34°
2026-04-24 02:08 -4.09240 -38.89426 8857 ft 281 kts 34°
2026-04-24 02:08 -4.07571 -38.88407 8559 ft 280 kts 34°
2026-04-24 02:08 -4.05912 -38.87396 8252 ft 279 kts 34°
2026-04-24 02:09 -4.04259 -38.86387 7980 ft 278 kts 34°
2026-04-24 02:09 -4.02611 -38.85381 7686 ft 277 kts 34°
2026-04-24 02:09 -4.00971 -38.84381 7396 ft 275 kts 34°
2026-04-24 02:09 -3.99337 -38.83384 7107 ft 275 kts 34°
2026-04-24 02:10 -3.97705 -38.82389 6814 ft 274 kts 34°
2026-04-24 02:10 -3.96096 -38.81408 6520 ft 274 kts 34°
2026-04-24 02:10 -3.94472 -38.80417 6225 ft 273 kts 34°
2026-04-24 02:10 -3.92851 -38.79428 5907 ft 273 kts 35°
2026-04-24 02:11 -3.91230 -38.78440 5630 ft 272 kts 34°
2026-04-24 02:11 -3.89614 -38.77454 5339 ft 271 kts 34°
2026-04-24 02:11 -3.88008 -38.76475 5074 ft 269 kts 34°
2026-04-24 02:11 -3.86409 -38.75500 4796 ft 268 kts 34°
2026-04-24 02:12 -3.84819 -38.74530 4514 ft 267 kts 34°
2026-04-24 02:12 -3.83232 -38.73564 4282 ft 264 kts 34°
2026-04-24 02:12 -3.81634 -38.72753 4065 ft 256 kts 21°
2026-04-24 02:12 -3.79950 -38.72280 3846 ft 247 kts 17°
2026-04-24 02:13 -3.78305 -38.71868 3625 ft 239 kts 17°
2026-04-24 02:13 -3.76719 -38.71459 3424 ft 230 kts 18°
2026-04-24 02:13 -3.75217 -38.71060 3257 ft 217 kts 21°
2026-04-24 02:13 -3.74024 -38.70303 3022 ft 195 kts 57°
2026-04-24 02:14 -3.73588 -38.69114 2833 ft 175 kts 94°
2026-04-24 02:14 -3.73789 -38.67983 2690 ft 160 kts 102°
2026-04-24 02:14 -3.74012 -38.66949 2525 ft 148 kts 104°
2026-04-24 02:14 -3.74258 -38.65961 2330 ft 144 kts 105°
2026-04-24 02:15 -3.74512 -38.64989 2139 ft 146 kts 105°
2026-04-24 02:15 -3.74774 -38.64002 1956 ft 148 kts 104°
2026-04-24 02:15 -3.75033 -38.63022 1772 ft 147 kts 105°
2026-04-24 02:15 -3.75296 -38.62036 1584 ft 146 kts 105°
2026-04-24 02:16 -3.75556 -38.61057 1382 ft 144 kts 105°
2026-04-24 02:16 -3.75815 -38.60080 1207 ft 148 kts 105°
2026-04-24 02:16 -3.76082 -38.59078 1003 ft 149 kts 106°
2026-04-24 02:16 -3.76343 -38.58096 810 ft 145 kts 105°
2026-04-24 02:17 -3.76601 -38.57128 666 ft 146 kts 105°
2026-04-24 02:17 -3.76862 -38.56146 476 ft 144 kts 107°
2026-04-24 02:17 -3.77122 -38.55164 276 ft 148 kts 107°
2026-04-24 02:17 -3.77387 -38.54167 104 ft 146 kts 106°
2026-04-24 02:18 -3.77613 -38.53335 90 ft 96 kts 105°
2026-04-24 02:18 -3.77733 -38.52885 93 ft 49 kts 105°
2026-04-24 02:18 -3.77797 -38.52641 89 ft 16 kts 107°
2026-04-24 02:18 -3.77862 -38.52637 90 ft 11 kts 238°
2026-04-24 02:19 -3.77895 -38.52705 91 ft 11 kts 243°
2026-04-24 02:19 -3.77913 -38.52774 93 ft 10 kts 278°
2026-04-24 02:19 -3.77896 -38.52844 93 ft 10 kts 284°
2026-04-24 02:19 -3.77878 -38.52911 92 ft 10 kts 285°
2026-04-24 02:20 -3.77860 -38.52978 91 ft 11 kts 285°
2026-04-24 02:20 -3.77837 -38.53063 94 ft 15 kts 285°
2026-04-24 02:20 -3.77807 -38.53175 93 ft 19 kts 285°
2026-04-24 02:20 -3.77773 -38.53302 92 ft 19 kts 285°
2026-04-24 02:21 -3.77740 -38.53426 93 ft 18 kts 285°
2026-04-24 02:21 -3.77709 -38.53547 91 ft 18 kts 284°
2026-04-24 02:21 -3.77676 -38.53662 91 ft 17 kts 285°
2026-04-24 02:21 -3.77672 -38.53772 93 ft 16 kts 241°
2026-04-24 02:22 -3.77726 -38.53867 94 ft 12 kts 240°
2026-04-24 02:22 -3.77779 -38.53868 92 ft 11 kts 128°
2026-04-24 02:22 -3.77834 -38.53802 92 ft 11 kts 134°
2026-04-24 02:22 -3.77888 -38.53813 90 ft 6 kts 218°
2026-04-24 02:23 -3.77902 -38.53824 91 ft 0 kts 217°